contact:dominique.lefevre@mio.osupytheas.fr, maurice.libes@osupytheas.fr, didier.mallarino@osupytheas.fr
Project:EMSO http://www.emso-fr.org/EMSO-France
Depth: 2436.0 m
Title:EMSO Ligure Ouest : Data MII capteur CSTAR
DateTime,Latitude,Longitude,Instrument_Serial,Reference_Counts,Signal_Counts,Corrected_Signal_raw_counts,Calculated_Beam_c_inverse_meters,Internal_thermistor_counts
DateTime,Latitude,Longitude,Instrument_Serial,Reference_Counts,Signal_Counts,Corrected_Signal_raw_counts,Calculated_Beam_c_inverse_meters,Internal_thermistor_counts
2023-10-19T00:00:54,42.805,6.029,CST-1368DR,4133,4441,11390,01.262,553
2023-10-19T00:03:56,42.805,6.029,CST-1368DR,4133,4444,11397,01.260,553
2023-10-19T00:06:57,42.805,6.029,CST-1368DR,4133,4444,11396,01.260,553
2023-10-19T00:09:59,42.805,6.029,CST-1368DR,4133,4442,11392,01.262,553
2023-10-19T00:13:00,42.805,6.029,CST-1368DR,4132,4441,11392,01.262,553
2023-10-19T00:16:02,42.805,6.029,CST-1368DR,4133,4438,11381,01.265,553
2023-10-19T00:19:04,42.805,6.029,CST-1368DR,4133,4440,11387,01.263,553
2023-10-19T00:22:05,42.805,6.029,CST-1368DR,4133,4440,11387,01.263,553
2023-10-19T00:25:07,42.805,6.029,CST-1368DR,4133,4440,11387,01.263,553
2023-10-19T00:28:08,42.805,6.029,CST-1368DR,4133,4440,11386,01.264,553
2023-10-19T00:31:10,42.805,6.029,CST-1368DR,4133,4439,11384,01.264,553
2023-10-19T00:34:11,42.805,6.029,CST-1368DR,4133,4439,11385,01.264,553
2023-10-19T00:37:13,42.805,6.029,CST-1368DR,4133,4440,11386,01.264,552
2023-10-19T00:40:15,42.805,6.029,CST-1368DR,4133,4439,11385,01.264,552
2023-10-19T00:43:16,42.805,6.029,CST-1368DR,4133,4436,11378,01.266,553
2023-10-19T00:46:18,42.805,6.029,CST-1368DR,4133,4439,11383,01.265,553
2023-10-19T00:49:19,42.805,6.029,CST-1368DR,4133,4439,11385,01.264,553
2023-10-19T00:52:21,42.805,6.029,CST-1368DR,4133,4439,11384,01.264,553
2023-10-19T00:55:23,42.805,6.029,CST-1368DR,4133,4439,11385,01.264,553
2023-10-19T00:58:24,42.805,6.029,CST-1368DR,4133,4438,11381,01.265,553
2023-10-19T01:01:26,42.805,6.029,CST-1368DR,4133,4436,11376,01.267,552
2023-10-19T01:04:27,42.805,6.029,CST-1368DR,4133,4438,11382,01.265,553
2023-10-19T01:07:29,42.805,6.029,CST-1368DR,4132,4439,11386,01.264,553
2023-10-19T01:10:30,42.805,6.029,CST-1368DR,4133,4439,11383,01.265,552
2023-10-19T01:13:32,42.805,6.029,CST-1368DR,4132,4438,11385,01.264,553
2023-10-19T01:16:34,42.805,6.029,CST-1368DR,4132,4438,11384,01.264,553
2023-10-19T01:19:35,42.805,6.029,CST-1368DR,4132,4435,11376,01.267,552
2023-10-19T01:22:37,42.805,6.029,CST-1368DR,4132,4437,11381,01.265,553
2023-10-19T01:25:38,42.805,6.029,CST-1368DR,4132,4437,11382,01.265,553
2023-10-19T01:28:40,42.805,6.029,CST-1368DR,4133,4437,11378,01.266,553
2023-10-19T01:31:41,42.805,6.029,CST-1368DR,4133,4437,11378,01.266,553
2023-10-19T01:34:43,42.805,6.029,CST-1368DR,4133,4432,11365,01.271,553
2023-10-19T01:37:45,42.805,6.029,CST-1368DR,4132,4437,11382,01.265,553
2023-10-19T01:40:46,42.805,6.029,CST-1368DR,4132,4437,11381,01.265,553
2023-10-19T01:43:48,42.805,6.029,CST-1368DR,4133,4434,11372,01.269,553
2023-10-19T01:46:49,42.805,6.029,CST-1368DR,4133,4435,11374,01.268,553
2023-10-19T01:49:55,42.805,6.029,CST-1368DR,4132,4436,11379,01.266,5
2023-10-19T01:55:07,42.805,6.029,CST-1368DR,4133,4436,11377,01.267,553
2023-10-19T01:58:08,42.805,6.029,CST-1368DR,4133,4436,11376,01.267,553
2023-10-19T02:01:10,42.805,6.029,CST-1368DR,4133,4436,11376,01.267,553
2023-10-19T02:04:11,42.805,6.029,CST-1368DR,4133,4436,11378,01.266,553
2023-10-19T02:07:13,42.805,6.029,CST-1368DR,4133,4436,11377,01.267,553
2023-10-19T02:10:15,42.805,6.029,CST-1368DR,4133,4436,11377,01.267,553
2023-10-19T02:13:16,42.805,6.029,CST-1368DR,4132,4436,11379,01.266,553
2023-10-19T02:16:18,42.805,6.029,CST-1368DR,4133,4436,11378,01.266,553
2023-10-19T02:19:19,42.805,6.029,CST-1368DR,4133,4436,11376,01.267,552
2023-10-19T02:22:21,42.805,6.029,CST-1368DR,4132,4435,11377,01.267,553
2023-10-19T02:25:22,42.805,6.029,CST-1368DR,4133,4435,11374,01.268,553
2023-10-19T02:28:24,42.805,6.029,CST-1368DR,4133,4436,11378,01.266,552
2023-10-19T02:31:26,42.805,6.029,CST-1368DR,4133,4436,11378,01.266,553
2023-10-19T02:34:27,42.805,6.029,CST-1368DR,4132,4436,11380,01.266,552
2023-10-19T02:37:29,42.805,6.029,CST-1368DR,4132,4435,11378,01.266,553
2023-10-19T02:40:30,42.805,6.029,CST-1368DR,4133,4435,11375,01.268,553
2023-10-19T02:43:32,42.805,6.029,CST-1368DR,4133,4436,11376,01.267,553
2023-10-19T02:46:33,42.805,6.029,CST-1368DR,4132,4435,11376,01.267,553
2023-10-19T02:49:35,42.805,6.029,CST-1368DR,4133,4435,11375,01.268,553
2023-10-19T02:52:37,42.805,6.029,CST-1368DR,4133,4436,11376,01.267,553
2023-10-19T02:55:38,42.805,6.029,CST-1368DR,4133,4436,11377,01.267,553
2023-10-19T02:58:40,42.805,6.029,CST-1368DR,4133,4435,11374,01.268,552
2023-10-19T03:01:41,42.805,6.029,CST-1368DR,4133,4434,11372,01.269,553
2023-10-19T03:04:43,42.805,6.029,CST-1368DR,4133,4434,11372,01.269,553
2023-10-19T03:07:45,42.805,6.029,CST-1368DR,4132,4436,11380,01.266,553
2023-10-19T03:10:46,42.805,6.029,CST-1368DR,4132,4435,11377,01.267,553
2023-10-19T03:13:48,42.805,6.029,CST-1368DR,4133,4435,11375,01.268,553
2023-10-19T03:16:49,42.805,6.029,CST-1368DR,4133,4435,11373,01.268,553
2023-10-19T03:19:51,42.805,6.029,CST-1368DR,4132,4437,11383,01.265,553
2023-10-19T03:22:52,42.805,6.029,CST-1368DR,4132,4436,11378,01.266,552
2023-10-19T03:25:54,42.805,6.029,CST-1368DR,4132,4435,11376,01.267,553
2023-10-19T03:28:56,42.805,6.029,CST-1368DR,4132,4435,11376,01.267,553
2023-10-19T03:31:57,42.805,6.029,CST-1368DR,4133,4435,11373,01.268,553
2023-10-19T03:34:59,42.805,6.029,CST-1368DR,4132,4435,11376,01.267,553
2023-10-19T03:38:00,42.805,6.029,CST-1368DR,4132,4435,11376,01.267,553
2023-10-19T03:41:02,42.805,6.029,CST-1368DR,4133,4434,11372,01.269,553
2023-10-19T03:44:03,42.805,6.029,CST-1368DR,4133,4435,11374,01.268,552
2023-10-19T03:47:05,42.805,6.029,CST-1368DR,4133,4436,11376,01.267,553
2023-10-19T03:50:07,42.805,6.029,CST-1368DR,4132,4434,11373,01.268,553
2023-10-19T03:53:08,42.805,6.029,CST-1368DR,4132,4434,11374,01.268,552
2023-10-19T03:56:10,42.805,6.029,CST-1368DR,4132,4435,11376,01.267,553
2023-10-19T03:59:11,42.805,6.029,CST-1368DR,4132,4435,11376,01.267,553
2023-10-19T04:02:13,42.805,6.029,CST-1368DR,4132,4434,11374,01.268,553
2023-10-19T04:05:15,42.805,6.029,CST-1368DR,4133,4434,11371,01.269,553
2023-10-19T04:08:16,42.805,6.029,CST-1368DR,4132,4434,11375,01.268,553
2023-10-19T04:11:18,42.805,6.029,CST-1368DR,4132,4433,11373,01.268,553
2023-10-19T04:14:19,42.805,6.029,CST-1368DR,4132,4434,11373,01.268,553
2023-10-19T04:17:21,42.805,6.029,CST-1368DR,4132,4433,11372,01.269,553
2023-10-19T04:20:22,42.805,6.029,CST-1368DR,4132,4434,11375,01.268,553
2023-10-19T04:23:24,42.805,6.029,CST-1368DR,4133,4435,11374,01.268,553
2023-10-19T04:26:26,42.805,6.029,CST-1368DR,4132,4435,11376,01.267,553
2023-10-19T04:29:27,42.805,6.029,CST-1368DR,4132,4434,11375,01.268,553
2023-10-19T04:32:29,42.805,6.029,CST-1368DR,4132,4435,11376,01.267,553
2023-10-19T04:35:30,42.805,6.029,CST-1368DR,4132,4435,11376,01.267,553
2023-10-19T04:38:32,42.805,6.029,CST-1368DR,4132,4434,11373,01.268,553
2023-10-19T04:41:33,42.805,6.029,CST-1368DR,4132,4434,11375,01.268,553
2023-10-19T04:44:35,42.805,6.029,CST-1368DR,4132,4435,11376,01.267,553
2023-10-19T04:47:37,42.805,6.029,CST-1368DR,4132,4434,11375,01.268,553
2023-10-19T04:50:38,42.805,6.029,CST-1368DR,4132,4435,11376,01.267,553
2023-10-19T04:53:40,42.805,6.029,CST-1368DR,4132,4433,11373,01.268,553
2023-10-19T04:56:41,42.805,6.029,CST-1368DR,4132,4432,11369,01.270,553
2023-10-19T04:59:43,42.805,6.029,CST-1368DR,4132,4433,11371,01.269,553
2023-10-19T05:02:44,42.805,6.029,CST-1368DR,4133,4434,11371,01.269,553
2023-10-19T05:05:46,42.805,6.029,CST-1368DR,4132,4433,11373,01.268,553
2023-10-19T05:08:48,42.805,6.029,CST-1368DR,4132,4433,11371,01.269,553
2023-10-19T05:11:49,42.805,6.029,CST-1368DR,4133,4434,11371,01.269,552
2023-10-19T05:14:51,42.805,6.029,CST-1368DR,4132,4433,11373,01.268,553
2023-10-19T05:17:52,42.805,6.029,CST-1368DR,4132,4436,11380,01.266,553
2023-10-19T05:20:54,42.805,6.029,CST-1368DR,4132,4432,11370,01.269,553
2023-10-19T05:23:56,42.805,6.029,CST-1368DR,4132,4432,11369,01.270,553
2023-10-19T05:26:57,42.805,6.029,CST-1368DR,4132,4433,11371,01.269,553
2023-10-19T05:29:59,42.805,6.029,CST-1368DR,4132,4434,11375,01.268,553
2023-10-19T05:33:00,42.805,6.029,CST-1368DR,4132,4429,11362,01.272,553
2023-10-19T05:36:02,42.805,6.029,CST-1368DR,4132,4430,11365,01.271,553
2023-10-19T05:39:03,42.805,6.029,CST-1368DR,4132,4432,11368,01.270,553
2023-10-19T05:42:05,42.805,6.029,CST-1368DR,4132,4432,11369,01.270,553
2023-10-19T05:45:07,42.805,6.029,CST-1368DR,4132,4433,11371,01.269,553
2023-10-19T05:48:08,42.805,6.029,CST-1368DR,4132,4433,11372,01.269,553
2023-10-19T05:51:10,42.805,6.029,CST-1368DR,4132,4433,11371,01.269,553
2023-10-19T05:54:11,42.805,6.029,CST-1368DR,4132,4433,11371,01.269,553
2023-10-19T05:57:13,42.805,6.029,CST-1368DR,4132,4433,11371,01.269,553
2023-10-19T06:00:14,42.805,6.029,CST-1368DR,4132,4432,11369,01.270,553
2023-10-19T06:03:16,42.805,6.029,CST-1368DR,4132,4432,11370,01.269,553
2023-10-19T06:06:18,42.805,6.029,CST-1368DR,4132,4432,11370,01.269,553
2023-10-19T06:09:19,42.805,6.029,CST-1368DR,4132,4433,11372,01.269,553
2023-10-19T06:12:21,42.805,6.029,CST-1368DR,4132,4433,11373,01.268,553
2023-10-19T06:15:22,42.805,6.029,CST-1368DR,4132,4433,11371,01.269,553
2023-10-19T06:18:24,42.805,6.029,CST-1368DR,4132,4432,11368,01.270,553
2023-10-19T06:21:26,42.805,6.029,CST-1368DR,4132,4433,11372,01.269,552
2023-10-19T06:24:27,42.805,6.029,CST-1368DR,4132,4433,11371,01.269,552
2023-10-19T06:27:29,42.805,6.029,CST-1368DR,4132,4432,11369,01.270,552
2023-10-19T06:30:32,42.805,6.029,CST-1368DR,4132,4431,11367,01.270,553
2023-10-19T06:33:33,42.805,6.029,CST-1368DR,4132,4432,11370,01.269,552
2023-10-19T06:36:35,42.805,6.029,CST-1368DR,4132,4433,11371,01.269,553
2023-10-19T06:39:36,42.805,6.029,CST-1368DR,4132,4432,11368,01.270,553
2023-10-19T06:42:38,42.805,6.029,CST-1368DR,4132,4431,11367,01.270,553
2023-10-19T06:45:40,42.805,6.029,CST-1368DR,4132,4432,11369,01.270,553
2023-10-19T06:48:41,42.805,6.029,CST-1368DR,4132,4433,11372,01.269,553
2023-10-19T06:51:43,42.805,6.029,CST-1368DR,4132,4431,11367,01.270,552
2023-10-19T06:54:44,42.805,6.029,CST-1368DR,4132,4431,11367,01.270,553
2023-10-19T06:57:46,42.805,6.029,CST-1368DR,4132,4431,11367,01.270,553
2023-10-19T07:00:48,42.805,6.029,CST-1368DR,4132,4431,11365,01.271,553
2023-10-19T07:03:49,42.805,6.029,CST-1368DR,4132,4431,11367,01.270,553
2023-10-19T07:06:51,42.805,6.029,CST-1368DR,4132,4432,11368,01.270,553
2023-10-19T07:09:52,42.805,6.029,CST-1368DR,4132,4430,11365,01.271,553
2023-10-19T07:12:54,42.805,6.029,CST-1368DR,4132,4430,11365,01.271,553
2023-10-19T07:15:55,42.805,6.029,CST-1368DR,4132,4431,11367,01.270,553
2023-10-19T07:18:57,42.805,6.029,CST-1368DR,4132,4432,11370,01.269,553
2023-10-19T07:21:59,42.805,6.029,CST-1368DR,4132,4430,11363,01.272,553
2023-10-19T07:25:00,42.805,6.029,CST-1368DR,4132,4432,11369,01.270,553
2023-10-19T07:28:02,42.805,6.029,CST-1368DR,4132,4432,11368,01.270,553
2023-10-19T07:31:03,42.805,6.029,CST-1368DR,4132,4433,11371,01.269,553
2023-10-19T07:34:05,42.805,6.029,CST-1368DR,4132,4432,11368,01.270,553
2023-10-19T07:37:07,42.805,6.029,CST-1368DR,4132,4430,11364,01.271,553
2023-10-19T07:40:08,42.805,6.029,CST-1368DR,4132,4431,11365,01.271,553
2023-10-19T07:43:10,42.805,6.029,CST-1368DR,4132,4432,11369,01.270,553
2023-10-19T07:46:11,42.805,6.029,CST-1368DR,4132,4427,11356,01.274,553
2023-10-19T07:49:13,42.805,6.029,CST-1368DR,4132,4431,11367,01.270,553
2023-10-19T07:52:14,42.805,6.029,CST-1368DR,4132,4432,11369,01.270,553
2023-10-19T07:55:16,42.805,6.029,CST-1368DR,4132,4432,11369,01.270,553
2023-10-19T07:58:18,42.805,6.029,CST-1368DR,4132,4432,11369,01.270,553
2023-10-19T08:01:19,42.805,6.029,CST-1368DR,4132,4432,11369,01.270,553
2023-10-19T08:04:21,42.805,6.029,CST-1368DR,4132,4431,11365,01.271,553
2023-10-19T08:07:22,42.805,6.029,CST-1368DR,4132,4431,11367,01.270,553
2023-10-19T08:10:24,42.805,6.029,CST-1368DR,4132,4432,11370,01.269,553
2023-10-19T08:13:25,42.805,6.029,CST-1368DR,4132,4433,11372,01.269,552
2023-10-19T08:16:27,42.805,6.029,CST-1368DR,4132,4432,11369,01.270,553
2023-10-19T08:19:29,42.805,6.029,CST-1368DR,4132,4432,11369,01.270,553
2023-10-19T08:22:30,42.805,6.029,CST-1368DR,4132,4436,11380,01.266,553
2023-10-19T08:25:32,42.805,6.029,CST-1368DR,4132,4430,11364,01.271,553
2023-10-19T08:28:33,42.805,6.029,CST-1368DR,4132,4430,11363,01.272,553
2023-10-19T08:31:35,42.805,6.029,CST-1368DR,4132,4431,11365,01.271,553
2023-10-19T08:34:37,42.805,6.029,CST-1368DR,4132,4431,11367,01.270,553
2023-10-19T08:37:38,42.805,6.029,CST-1368DR,4132,4431,11367,01.270,553
2023-10-19T08:40:40,42.805,6.029,CST-1368DR,4132,4431,11367,01.270,553
2023-10-19T08:43:41,42.805,6.029,CST-1368DR,4132,4432,11368,01.270,552
2023-10-19T08:46:43,42.805,6.029,CST-1368DR,4132,4432,11368,01.270,553
2023-10-19T08:49:45,42.805,6.029,CST-1368DR,4132,4432,11368,01.270,553
2023-10-19T08:52:46,42.805,6.029,CST-1368DR,4132,4431,11367,01.270,553
2023-10-19T08:55:48,42.805,6.029,CST-1368DR,4132,4432,11368,01.270,552
2023-10-19T08:58:49,42.805,6.029,CST-1368DR,4132,4430,11364,01.271,553
2023-10-19T09:01:51,42.805,6.029,CST-1368DR,4132,4431,11367,01.270,553
2023-10-19T09:04:52,42.805,6.029,CST-1368DR,4132,4432,11370,01.269,552
2023-10-19T09:07:54,42.805,6.029,CST-1368DR,4132,4432,11370,01.269,553
2023-10-19T09:10:56,42.805,6.029,CST-1368DR,4132,4430,11365,01.271,553
2023-10-19T09:13:57,42.805,6.029,CST-1368DR,4132,4432,11369,01.270,553
2023-10-19T09:16:59,42.805,6.029,CST-1368DR,4132,4431,11367,01.270,553
2023-10-19T09:20:00,42.805,6.029,CST-1368DR,4132,4431,11365,01.271,553
2023-10-19T09:23:02,42.805,6.029,CST-1368DR,4132,4432,11369,01.270,553
2023-10-19T09:26:03,42.805,6.029,CST-1368DR,4132,4430,11365,01.271,553
2023-10-19T09:29:05,42.805,6.029,CST-1368DR,4132,4432,11370,01.269,553
2023-10-19T09:32:07,42.805,6.029,CST-1368DR,4132,4432,11370,01.269,553
2023-10-19T09:35:08,42.805,6.029,CST-1368DR,4132,4432,11369,01.270,553
2023-10-19T09:38:10,42.805,6.029,CST-1368DR,4132,4432,11369,01.270,553
2023-10-19T09:41:11,42.805,6.029,CST-1368DR,4132,4432,11369,01.270,553
2023-10-19T09:44:13,42.805,6.029,CST-1368DR,4132,4433,11371,01.269,553
2023-10-19T09:47:15,42.805,6.029,CST-1368DR,4132,4430,11365,01.271,553
2023-10-19T09:50:16,42.805,6.029,CST-1368DR,4132,4432,11370,01.269,553
2023-10-19T09:53:18,42.805,6.029,CST-1368DR,4132,4431,11367,01.270,553
2023-10-19T09:56:19,42.805,6.029,CST-1368DR,4132,4433,11372,01.269,553
2023-10-19T09:59:21,42.805,6.029,CST-1368DR,4132,4431,11367,01.270,553
2023-10-19T10:02:22,42.805,6.029,CST-1368DR,4132,4432,11368,01.270,553
2023-10-19T10:05:24,42.805,6.029,CST-1368DR,4132,4432,11369,01.270,552
2023-10-19T10:08:26,42.805,6.029,CST-1368DR,4132,4432,11368,01.270,553
2023-10-19T10:11:27,42.805,6.029,CST-1368DR,4132,4432,11369,01.270,553
2023-10-19T10:14:29,42.805,6.029,CST-1368DR,4132,4435,11377,01.267,553
2023-10-19T10:17:30,42.805,6.029,CST-1368DR,4132,4432,11369,01.270,553
2023-10-19T10:20:32,42.805,6.029,CST-1368DR,4132,4425,11351,01.276,553
2023-10-19T10:23:33,42.805,6.029,CST-1368DR,4132,4433,11373,01.268,553
2023-10-19T10:26:35,42.805,6.029,CST-1368DR,4132,4433,11371,01.269,553
2023-10-19T10:29:37,42.805,6.029,CST-1368DR,4132,4433,11373,01.268,553
2023-10-19T10:32:38,42.805,6.029,CST-1368DR,4132,4433,11371,01.269,553
2023-10-19T10:35:40,42.805,6.029,CST-1368DR,4132,4431,11367,01.270,553
2023-10-19T10:38:42,42.805,6.029,CST-1368DR,4132,4432,11369,01.270,553
2023-10-19T10:41:43,42.805,6.029,CST-1368DR,4132,4434,11374,01.268,553
2023-10-19T10:44:45,42.805,6.029,CST-1368DR,4132,4433,11371,01.269,553
2023-10-19T10:47:46,42.805,6.029,CST-1368DR,4132,4433,11371,01.269,553
2023-10-19T10:50:48,42.805,6.029,CST-1368DR,4132,4432,11369,01.270,553
2023-10-19T10:53:49,42.805,6.029,CST-1368DR,4132,4432,11368,01.270,553
2023-10-19T10:56:51,42.805,6.029,CST-1368DR,4132,4432,11370,01.269,553
2023-10-19T10:59:53,42.805,6.029,CST-1368DR,4132,4432,11369,01.270,553
2023-10-19T11:02:54,42.805,6.029,CST-1368DR,4132,4433,11372,01.269,553
2023-10-19T11:05:56,42.805,6.029,CST-1368DR,4132,4432,11370,01.269,552
2023-10-19T11:08:57,42.805,6.029,CST-1368DR,4132,4433,11371,01.269,553
2023-10-19T11:11:59,42.805,6.029,CST-1368DR,4132,4432,11368,01.270,553
2023-10-19T11:15:00,42.805,6.029,CST-1368DR,4132,4434,11374,01.268,553
2023-10-19T11:18:02,42.805,6.029,CST-1368DR,4132,4433,11371,01.269,553
2023-10-19T11:21:04,42.805,6.029,CST-1368DR,4132,4434,11375,01.268,553
2023-10-19T11:24:05,42.805,6.029,CST-1368DR,4132,4433,11372,01.269,553
2023-10-19T11:27:07,42.805,6.029,CST-1368DR,4132,4431,11367,01.270,553
2023-10-19T11:30:08,42.805,6.029,CST-1368DR,4132,4433,11372,01.269,553
2023-10-19T11:33:10,42.805,6.029,CST-1368DR,4132,4435,11376,01.267,553
2023-10-19T11:36:12,42.805,6.029,CST-1368DR,4132,4433,11373,01.268,553
2023-10-19T11:39:13,42.805,6.029,CST-1368DR,4132,4433,11373,01.268,553
2023-10-19T11:42:15,42.805,6.029,CST-1368DR,4132,4433,11371,01.269,553
2023-10-19T11:45:16,42.805,6.029,CST-1368DR,4132,4436,11378,01.266,553
2023-10-19T11:48:18,42.805,6.029,CST-1368DR,4132,4433,11371,01.269,553
2023-10-19T11:51:19,42.805,6.029,CST-1368DR,4132,4434,11373,01.268,553
2023-10-19T11:54:21,42.805,6.029,CST-1368DR,4132,4433,11371,01.269,553
2023-10-19T11:57:23,42.805,6.029,CST-1368DR,4132,4434,11374,01.268,553
2023-10-19T12:00:24,42.805,6.029,CST-1368DR,4132,4435,11376,01.267,553
2023-10-19T12:03:26,42.805,6.029,CST-1368DR,4132,4433,11371,01.269,553
2023-10-19T12:06:27,42.805,6.029,CST-1368DR,4132,4432,11370,01.269,553
2023-10-19T12:09:29,42.805,6.029,CST-1368DR,4132,4430,11364,01.271,553
2023-10-19T12:12:30,42.805,6.029,CST-1368DR,4132,4433,11371,01.269,553
2023-10-19T12:15:32,42.805,6.029,CST-1368DR,4132,4434,11374,01.268,553
2023-10-19T12:18:34,42.805,6.029,CST-1368DR,4132,4436,11378,01.266,553
2023-10-19T12:21:35,42.805,6.029,CST-1368DR,4132,4433,11371,01.269,553
2023-10-19T12:24:37,42.805,6.029,CST-1368DR,4132,4433,11373,01.268,552
2023-10-19T12:27:38,42.805,6.029,CST-1368DR,4132,4432,11370,01.269,552
2023-10-19T12:30:40,42.805,6.029,CST-1368DR,4132,4431,11367,01.270,553
2023-10-19T12:33:42,42.805,6.029,CST-1368DR,4132,4428,11359,01.273,553
2023-10-19T12:36:43,42.805,6.029,CST-1368DR,4132,4432,11369,01.270,553
2023-10-19T12:39:45,42.805,6.029,CST-1368DR,4132,4432,11369,01.270,553
2023-10-19T12:42:46,42.805,6.029,CST-1368DR,4132,4430,11363,01.272,552
2023-10-19T12:45:48,42.805,6.029,CST-1368DR,4132,4428,11360,01.273,553
2023-10-19T12:48:49,42.805,6.029,CST-1368DR,4132,4429,11362,01.272,552
2023-10-19T12:51:51,42.805,6.029,CST-1368DR,4132,4432,11370,01.269,552
2023-10-19T12:54:53,42.805,6.029,CST-1368DR,4132,4433,11371,01.269,553
2023-10-19T12:57:54,42.805,6.029,CST-1368DR,4132,4432,11369,01.270,553
2023-10-19T13:00:56,42.805,6.029,CST-1368DR,4132,4432,11368,01.270,553
2023-10-19T13:03:57,42.805,6.029,CST-1368DR,4132,4431,11367,01.270,553
2023-10-19T13:06:59,42.805,6.029,CST-1368DR,4132,4436,11380,01.266,552
2023-10-19T13:10:01,42.805,6.029,CST-1368DR,4132,4432,11368,01.270,553
2023-10-19T13:13:02,42.805,6.029,CST-1368DR,4132,4432,11368,01.270,553
2023-10-19T13:16:04,42.805,6.029,CST-1368DR,4132,4433,11371,01.269,553
2023-10-19T13:19:05,42.805,6.029,CST-1368DR,4132,4429,11362,01.272,553
2023-10-19T13:22:07,42.805,6.029,CST-1368DR,4132,4435,11378,01.266,553
2023-10-19T13:25:08,42.805,6.029,CST-1368DR,4132,4428,11360,01.273,553
2023-10-19T13:28:10,42.805,6.029,CST-1368DR,4132,4432,11369,01.270,553
2023-10-19T13:31:12,42.805,6.029,CST-1368DR,4132,4432,11369,01.270,553
2023-10-19T13:34:13,42.805,6.029,CST-1368DR,4132,4434,11373,01.268,553
2023-10-19T13:37:15,42.805,6.029,CST-1368DR,4132,4436,11380,01.266,553
2023-10-19T13:40:16,42.805,6.029,CST-1368DR,4132,4436,11378,01.266,553
2023-10-19T13:43:18,42.805,6.029,CST-1368DR,4132,4432,11368,01.270,553
2023-10-19T13:46:19,42.805,6.029,CST-1368DR,4132,4432,11370,01.269,553
2023-10-19T13:49:21,42.805,6.029,CST-1368DR,4132,4432,11369,01.270,553
2023-10-19T13:52:23,42.805,6.029,CST-1368DR,4132,4432,11369,01.270,553
2023-10-19T13:55:24,42.805,6.029,CST-1368DR,4132,4433,11371,01.269,553
2023-10-19T13:58:26,42.805,6.029,CST-1368DR,4132,4433,11372,01.269,553
2023-10-19T14:01:27,42.805,6.029,CST-1368DR,4132,4430,11364,01.271,553
2023-10-19T14:04:29,42.805,6.029,CST-1368DR,4132,4435,11376,01.267,553
2023-10-19T14:07:30,42.805,6.029,CST-1368DR,4132,4433,11372,01.269,552
2023-10-19T14:10:32,42.805,6.029,CST-1368DR,4132,4430,11365,01.271,553
2023-10-19T14:13:34,42.805,6.029,CST-1368DR,4132,4434,11374,01.268,553
2023-10-19T14:16:35,42.805,6.029,CST-1368DR,4132,4435,11376,01.267,553
2023-10-19T14:19:37,42.805,6.029,CST-1368DR,4132,4434,11373,01.268,553
2023-10-19T14:22:38,42.805,6.029,CST-1368DR,4132,4432,11368,01.270,553
2023-10-19T14:25:40,42.805,6.029,CST-1368DR,4132,4433,11372,01.269,552
2023-10-19T14:28:42,42.805,6.029,CST-1368DR,4132,4435,11378,01.266,553
2023-10-19T14:31:46,42.805,6.029,CST-1368DR,4132,4436,11380,01.266,552
2023-10-19T14:34:47,42.805,6.029,CST-1368DR,4132,4435,11377,01.267,553
2023-10-19T14:37:49,42.805,6.029,CST-1368DR,4132,4437,11381,01.265,553
2023-10-19T14:40:51,42.805,6.029,CST-1368DR,4132,4437,11383,01.265,553
2023-10-19T14:43:52,42.805,6.029,CST-1368DR,4132,4436,11379,01.266,553
2023-10-19T14:46:54,42.805,6.029,CST-1368DR,4132,4435,11378,01.266,552
2023-10-19T14:49:55,42.805,6.029,CST-1368DR,4132,4433,11371,01.269,553
2023-10-19T14:52:57,42.805,6.029,CST-1368DR,4132,4437,11383,01.265,553
2023-10-19T14:55:59,42.805,6.029,CST-1368DR,4132,4436,11379,01.266,553
2023-10-19T14:59:00,42.805,6.029,CST-1368DR,4132,4436,11379,01.266,553
2023-10-19T15:02:02,42.805,6.029,CST-1368DR,4132,4436,11378,01.266,553
2023-10-19T15:05:03,42.805,6.029,CST-1368DR,4132,4437,11381,01.265,553
2023-10-19T15:08:05,42.805,6.029,CST-1368DR,4132,4434,11375,01.268,553
2023-10-19T15:11:06,42.805,6.029,CST-1368DR,4132,4433,11373,01.268,552
2023-10-19T15:14:08,42.805,6.029,CST-1368DR,4132,4436,11379,01.266,553
2023-10-19T15:17:10,42.805,6.029,CST-1368DR,4132,4436,11380,01.266,553
2023-10-19T15:20:11,42.805,6.029,CST-1368DR,4132,4436,11380,01.266,553
2023-10-19T15:23:13,42.805,6.029,CST-1368DR,4132,4437,11381,01.265,553
2023-10-19T15:26:14,42.805,6.029,CST-1368DR,4132,4435,11378,01.266,553
2023-10-19T15:29:16,42.805,6.029,CST-1368DR,4132,4436,11380,01.266,553
2023-10-19T15:32:17,42.805,6.029,CST-1368DR,4132,4437,11381,01.265,553
2023-10-19T15:35:19,42.805,6.029,CST-1368DR,4132,4436,11379,01.266,553
2023-10-19T15:38:21,42.805,6.029,CST-1368DR,4132,4436,11379,01.266,553
2023-10-19T15:41:22,42.805,6.029,CST-1368DR,4132,4437,11381,01.265,553
2023-10-19T15:44:24,42.805,6.029,CST-1368DR,4132,4437,11382,01.265,553
2023-10-19T15:47:25,42.805,6.029,CST-1368DR,4132,4437,11383,01.265,552
2023-10-19T15:50:27,42.805,6.029,CST-1368DR,4132,4436,11378,01.266,553
2023-10-19T15:53:29,42.805,6.029,CST-1368DR,4132,4436,11380,01.266,553
2023-10-19T15:56:30,42.805,6.029,CST-1368DR,4132,4437,11383,01.265,553
2023-10-19T15:59:32,42.805,6.029,CST-1368DR,4132,4437,11381,01.265,553
2023-10-19T16:02:33,42.805,6.029,CST-1368DR,4132,4436,11379,01.266,552
2023-10-19T16:05:35,42.805,6.029,CST-1368DR,4132,4436,11379,01.266,553
2023-10-19T16:08:36,42.805,6.029,CST-1368DR,4132,4437,11381,01.265,553
2023-10-19T16:11:38,42.805,6.029,CST-1368DR,4132,4437,11382,01.265,553
2023-10-19T16:14:40,42.805,6.029,CST-1368DR,4132,4436,11380,01.266,553
2023-10-19T16:17:41,42.805,6.029,CST-1368DR,4132,4435,11378,01.266,553
2023-10-19T16:20:43,42.805,6.029,CST-1368DR,4132,4436,11380,01.266,553
2023-10-19T16:23:44,42.805,6.029,CST-1368DR,4132,4437,11381,01.265,553
2023-10-19T16:26:46,42.805,6.029,CST-1368DR,4132,4435,11376,01.267,553
2023-10-19T16:29:47,42.805,6.029,CST-1368DR,4132,4436,11380,01.266,553
2023-10-19T16:32:49,42.805,6.029,CST-1368DR,4132,4436,11380,01.266,552
2023-10-19T16:35:51,42.805,6.029,CST-1368DR,4132,4436,11380,01.266,553
2023-10-19T16:38:52,42.805,6.029,CST-1368DR,4132,4436,11379,01.266,553